Weather History for Copper Mountain, CO

Change the Weather History Date:

Monday, May 27, 2013

  Actual Average (KLXV) Record (KLXV)
Temperature  
Mean Temperature 47 °F -  
Max Temperature 53 °F 59 °F 70 °F (2003)
Min Temperature 41 °F 30 °F 12 °F (1980)
Degree Days  
Heating Degree Days 18 21  
Month to date heating degree days 671  
Since 1 July heating degree days 10672  
Cooling Degree Days 0 0  
Month to date cooling degree days 0  
Year to date cooling degree days 0  
Moisture  
Dew Point 9 °F    
Average Humidity 24    
Maximum Humidity 34    
Minimum Humidity 18    
Precipitation  
Precipitation 0.00 in 0.02 in 0.11 in (1993)
Month to date precipitation 0.70  
Year to date precipitation 4.03  
Sea Level Pressure  
Sea Level Pressure 30.28 in    
Wind  
Wind Speed 14 mph (WSW)    
Max Wind Speed 22 mph    
Max Gust Speed 32 mph    
Visibility 10 miles    
Events      
T = Trace of Precipitation, MM = Missing Value Source: NWS Daily Summary

Daily Weather History Graph

Daily Weather History Graph

Search for Another Location

Airport:

Trip Planner

Search our weather history database for the weather conditions in past years. The results will help you decide how hot, cold, wet, or windy it might be!

Date:

Astronomy

May. 27, 2013 Rise Set
Actual Time 5:41 AM MDT 8:22 PM MDT
Civil Twilight 5:10 AM MDT 8:53 PM MDT
Nautical Twilight 4:31 AM MDT 9:33 PM MDT
Astronomical Twilight 3:46 AM MDT 10:17 PM MDT
Moon 11:04 PM MDT (5/27) 8:21 AM MDT (5/27)
Length of Visible Light 15h 43m
Length of Day
14h 40m
Waning Gibbous, 90% of the Moon is Illuminated
May 27
Waning Gibbous
May 31
Last Quarter
Jun 8
New
Jun 16
First Quarter
Jun 23
Full

Hourly Weather History & Observations

Time (MDT) Temp. Windchill Dew Point Humidity Pressure Visibility Wind Dir Wind Speed Gust Speed Precip Events Conditions
12:12 AM 44.6 °F 39.7 °F 8.6 °F 23% 30.36 in 10.0 mi SSW 9.2 mph 28.8 mph N/A   Clear
12:32 AM 44.6 °F 39.7 °F 6.8 °F 21% 30.36 in 10.0 mi SSW 9.2 mph 17.3 mph N/A   Clear
12:52 AM 44.6 °F 38.8 °F 5.0 °F 20% 30.36 in 10.0 mi SSW 11.5 mph 20.7 mph N/A   Clear
1:12 AM 44.6 °F 39.2 °F 5.0 °F 20% 30.36 in 10.0 mi SSW 10.4 mph 18.4 mph N/A   Clear
1:32 AM 44.6 °F 39.7 °F 5.0 °F 20% 30.34 in 10.0 mi SSW 9.2 mph 16.1 mph N/A   Clear
1:52 AM 44.6 °F 38.4 °F 5.0 °F 20% 30.33 in 10.0 mi SSW 12.7 mph 21.9 mph N/A   Clear
2:12 AM 44.6 °F 38.4 °F 6.8 °F 21% 30.33 in 10.0 mi SW 12.7 mph 21.9 mph N/A   Clear
2:32 AM 44.6 °F 37.8 °F 5.0 °F 20% 30.32 in 10.0 mi SSW 15.0 mph 25.3 mph N/A   Clear
2:52 AM 44.6 °F 36.9 °F 3.2 °F 18% 30.31 in 10.0 mi SW 18.4 mph 27.6 mph N/A   Clear
3:12 AM 42.8 °F 34.3 °F 3.2 °F 19% 30.30 in 10.0 mi WSW 19.6 mph 25.3 mph N/A   Clear
3:32 AM 42.8 °F 35.1 °F 3.2 °F 19% 30.31 in 10.0 mi SW 16.1 mph 23.0 mph N/A   Clear
3:52 AM 41.0 °F 33.5 °F 1.4 °F 19% 30.29 in 10.0 mi SW 13.8 mph 24.2 mph N/A   Clear
4:12 AM 41.0 °F 31.9 °F 1.4 °F 19% 30.29 in 10.0 mi WSW 19.6 mph 25.3 mph N/A   Clear
4:32 AM 41.0 °F 32.5 °F -0.4 °F 18% 30.29 in 10.0 mi SW 17.3 mph 26.5 mph N/A   Clear
4:52 AM 41.0 °F 33.5 °F -0.4 °F 18% 30.30 in 10.0 mi SW 13.8 mph 23.0 mph N/A   Clear
5:12 AM 41.0 °F 32.8 °F -0.4 °F 18% 30.30 in 10.0 mi SW 16.1 mph 25.3 mph N/A   Clear
5:32 AM 41.0 °F 34.3 °F 1.4 °F 19% 30.30 in 10.0 mi SW 11.5 mph 21.9 mph N/A   Clear
5:52 AM 41.0 °F 33.5 °F 3.2 °F 21% 30.30 in 10.0 mi SSW 13.8 mph 20.7 mph N/A   Clear
6:12 AM 41.0 °F 33.1 °F 5.0 °F 23% 30.29 in 10.0 mi WSW 15.0 mph 20.7 mph N/A   Clear
6:32 AM 41.0 °F 32.2 °F 5.0 °F 23% 30.29 in 10.0 mi West 18.4 mph 25.3 mph N/A   Clear
6:52 AM 41.0 °F 33.9 °F 5.0 °F 23% 30.30 in 10.0 mi West 12.7 mph 21.9 mph N/A   Clear
7:12 AM 41.0 °F 32.2 °F 5.0 °F 23% 30.30 in 10.0 mi West 18.4 mph - N/A   Clear
7:32 AM 42.8 °F 36.2 °F 8.6 °F 25% 30.30 in 10.0 mi WSW 12.7 mph 21.9 mph N/A   Clear
7:52 AM 44.6 °F 37.2 °F 6.8 °F 21% 30.30 in 10.0 mi West 17.3 mph 23.0 mph N/A   Clear
8:12 AM 44.6 °F 38.4 °F 8.6 °F 23% 30.30 in 10.0 mi West 12.7 mph 20.7 mph N/A   Clear
8:32 AM 44.6 °F 39.2 °F 8.6 °F 23% 30.29 in 10.0 mi WSW 10.4 mph 18.4 mph N/A   Clear
8:52 AM 44.6 °F 36.1 °F 8.6 °F 23% 30.29 in 10.0 mi West 21.9 mph 27.6 mph N/A   Scattered Clouds
9:12 AM 44.6 °F 36.6 °F 8.6 °F 23% 30.29 in 10.0 mi West 19.6 mph 26.5 mph N/A   Clear
9:32 AM 44.6 °F 38.1 °F 10.4 °F 25% 30.29 in 10.0 mi WSW 13.8 mph 21.9 mph N/A   Clear
9:52 AM 44.6 °F 39.7 °F 12.2 °F 27% 30.29 in 10.0 mi WSW 9.2 mph 16.1 mph N/A   Scattered Clouds
10:12 AM 44.6 °F 38.8 °F 10.4 °F 25% 30.28 in 10.0 mi WSW 11.5 mph 21.9 mph N/A   Scattered Clouds
10:32 AM 44.6 °F 40.2 °F 10.4 °F 25% 30.28 in 10.0 mi SW 8.1 mph - N/A   Clear
10:52 AM 46.4 °F 41.1 °F 12.2 °F 25% 30.28 in 10.0 mi WSW 11.5 mph 20.7 mph N/A   Scattered Clouds
11:12 AM 46.4 °F 39.0 °F 10.4 °F 23% 30.28 in 10.0 mi WSW 19.6 mph 28.8 mph N/A   Scattered Clouds
11:32 AM 46.4 °F 39.5 °F 10.4 °F 23% 30.29 in 10.0 mi West 17.3 mph 31.1 mph N/A   Clear
11:52 AM 46.4 °F 40.7 °F 10.4 °F 23% 30.28 in 10.0 mi West 12.7 mph 18.4 mph N/A   Scattered Clouds
12:12 PM 46.4 °F 42.4 °F 8.6 °F 22% 30.28 in 10.0 mi SSW 8.1 mph 21.9 mph N/A   Mostly Cloudy
12:32 PM 46.4 °F 41.5 °F 10.4 °F 23% 30.28 in 10.0 mi SSW 10.4 mph 24.2 mph N/A   Scattered Clouds
12:52 PM 46.4 °F 39.8 °F 10.4 °F 23% 30.28 in 10.0 mi WSW 16.1 mph 28.8 mph N/A   Clear
1:12 PM 46.4 °F 39.5 °F 10.4 °F 23% 30.27 in 10.0 mi WSW 17.3 mph 25.3 mph N/A   Scattered Clouds
1:32 PM 46.4 °F 39.2 °F 12.2 °F 25% 30.27 in 10.0 mi WSW 18.4 mph - N/A   Scattered Clouds
1:52 PM 46.4 °F 42.9 °F 10.4 °F 23% 30.27 in 10.0 mi SW 6.9 mph 25.3 mph N/A   Scattered Clouds
2:12 PM 46.4 °F 39.0 °F 10.4 °F 23% 30.26 in 10.0 mi WSW 19.6 mph 26.5 mph N/A   Mostly Cloudy
2:32 PM 50.0 °F - 12.2 °F 22% 30.26 in 10.0 mi WSW 17.3 mph 23.0 mph N/A   Mostly Cloudy
2:52 PM 50.0 °F - 10.4 °F 20% 30.25 in 10.0 mi West 18.4 mph 28.8 mph N/A   Mostly Cloudy
3:12 PM 48.2 °F - 8.6 °F 20% 30.25 in 10.0 mi SW 11.5 mph 23.0 mph N/A   Mostly Cloudy
3:32 PM 46.4 °F 40.4 °F 10.4 °F 23% 30.25 in 10.0 mi WSW 13.8 mph 24.2 mph N/A   Mostly Cloudy
3:52 PM 48.2 °F - 8.6 °F 20% 30.25 in 10.0 mi West 19.6 mph 26.5 mph N/A   Mostly Cloudy
4:12 PM 46.4 °F 40.4 °F 12.2 °F 25% 30.25 in 10.0 mi West 13.8 mph 19.6 mph N/A   Overcast
4:32 PM 46.4 °F 41.1 °F 12.2 °F 25% 30.24 in 10.0 mi WSW 11.5 mph 27.6 mph N/A   Overcast
4:52 PM 50.0 °F - 12.2 °F 22% 30.23 in 10.0 mi WSW 12.7 mph 17.3 mph N/A   Overcast
5:12 PM 50.0 °F - 10.4 °F 20% 30.23 in 10.0 mi West 16.1 mph 27.6 mph N/A   Mostly Cloudy
5:32 PM 53.6 °F - 12.2 °F 19% 30.23 in 10.0 mi West 13.8 mph 19.6 mph N/A   Mostly Cloudy
5:52 PM 50.0 °F - 12.2 °F 22% 30.23 in 10.0 mi WSW 5.8 mph 24.2 mph N/A   Scattered Clouds
6:12 PM 46.4 °F 39.0 °F 10.4 °F 23% 30.23 in 10.0 mi West 19.6 mph 26.5 mph N/A   Scattered Clouds
6:32 PM 48.2 °F - 12.2 °F 24% 30.23 in 10.0 mi West 19.6 mph 26.5 mph N/A   Mostly Cloudy
6:52 PM 48.2 °F - 14.0 °F 25% 30.23 in 10.0 mi West 15.0 mph - N/A   Scattered Clouds
7:12 PM 46.4 °F 38.7 °F 12.2 °F 25% 30.23 in 10.0 mi West 20.7 mph 24.2 mph N/A   Clear
7:32 PM 46.4 °F 38.7 °F 12.2 °F 25% 30.24 in 10.0 mi West 20.7 mph 32.2 mph N/A   Clear
7:52 PM 46.4 °F 39.0 °F 12.2 °F 25% 30.24 in 10.0 mi West 19.6 mph 27.6 mph N/A   Clear
8:12 PM 44.6 °F 37.2 °F 12.2 °F 27% 30.24 in 10.0 mi West 17.3 mph - N/A   Scattered Clouds
8:32 PM 44.6 °F 36.1 °F 14.0 °F 29% 30.24 in 10.0 mi West 21.9 mph 26.5 mph N/A   Scattered Clouds
8:52 PM 44.6 °F 37.8 °F 15.8 °F 31% 30.25 in 10.0 mi WSW 15.0 mph 20.7 mph N/A   Scattered Clouds
9:12 PM 44.6 °F 38.1 °F 14.0 °F 29% 30.25 in 10.0 mi WSW 13.8 mph 23.0 mph N/A   Scattered Clouds
9:32 PM 44.6 °F 38.1 °F 15.8 °F 31% 30.25 in 10.0 mi WSW 13.8 mph 20.7 mph N/A   Mostly Cloudy
9:52 PM 44.6 °F 38.8 °F 17.6 °F 34% 30.26 in 10.0 mi WSW 11.5 mph 19.6 mph N/A   Mostly Cloudy
10:12 PM 42.8 °F 36.2 °F 15.8 °F 34% 30.25 in 10.0 mi WSW 12.7 mph - N/A   Scattered Clouds
10:32 PM 44.6 °F 37.8 °F 15.8 °F 31% 30.25 in 10.0 mi WSW 15.0 mph - N/A   Scattered Clouds
10:52 PM 42.8 °F 35.8 °F 15.8 °F 34% 30.25 in 10.0 mi WSW 13.8 mph 18.4 mph N/A   Clear
11:12 PM 41.0 °F 32.8 °F 14.0 °F 33% 30.24 in 10.0 mi WSW 16.1 mph - N/A   Clear
11:32 PM 42.8 °F 35.1 °F 14.0 °F 31% 30.24 in 10.0 mi WSW 16.1 mph - N/A   Clear
11:52 PM 41.0 °F 33.1 °F 14.0 °F 33% 30.24 in 10.0 mi WSW 15.0 mph 25.3 mph N/A   Clear